Location: Unspecified
(42.3650°N, 71.1030°W)
Time: 09:27:47
(UTC+00:00)

Tiros 1 - Pass Details

Date: 04 July 2024
Orbit: 624 x 656 km, 48.4° (Epoch: 20 July)

Event Time Altitude Azimuth Distance (km) Brightness Sun altitude
Rises 22:31:26 0° 198° (SSW) 2,905 10.6 18.2°
Reaches altitude 10° 22:34:15 10° 182° (S) 1,996 9.6 17.7°
Maximum altitude 22:37:34 20° 135° (SE) 1,458 8.6 17.2°
Drops below altitude 10° 22:40:52 10° 89° (E) 1,995 9.2 16.6°
Sets 22:43:41 0° 72° (ENE) 2,903 10.0 16.1°
